Location: Krasnoyarskiy Pitomnik
(51.1333°N, 71.6167°E)
Time: 10:02:19
(UTC+00:00)

Altair - Pass Details

Date: 20 April 2024
Orbit: 1502 x 1682 km, 47.2° (Epoch: 23 May)

Event Time Altitude Azimuth Distance (km) Brightness Sun altitude
Rises 17:39:08 0° 272° (W) 4,881 10.5 -23.8°
Reaches altitude 10° 17:42:19 10° 270° (W) 3,873 9.9 -24.0°
Maximum altitude 17:52:04 69° 190° (S) 1,689 7.4 -24.6°
Enters shadow 17:57:39 28° 116° (ESE) 2,603 8.3 -24.9°
